EW5897 Weather Reports


Display with metric or nautical units.
time (UTC)temp
F
wind
direction
speed
MPH
gust
MPH
rain 1hr
in
rain 24hr
in
rain mn
in
humidity
%
barometer
mb
20260507065410 25 300 0.0 0.0 0.00 0.00 0.00 90 1010.6
20260507063850 25 300 0.0 0.0 0.00 0.00 0.00 89 1010.6
20260507061905 26 294 0.0 0.0 0.00 0.00 0.00 89 1010.7
20260507055924 26 298 0.0 2.0 0.00 0.00 0.00 89 1010.5
20260507053906 25 315 0.0 0.0 0.00 0.00 0.00 87 1010.6
20260507051906 25 314 0.0 0.0 0.00 0.00 0.00 85 1010.7
20260507050405 26 314 0.0 0.0 0.00 0.00 0.00 82 1010.7
20260507044404 27 319 0.0 2.0 0.00 0.00 0.00 79 1010.9
20260507042407 30 343 0.0 0.0 0.00 0.00 0.00 70 1011.0
20260507040407 32 350 0.0 2.0 0.00 0.00 0.00 69 1011.1
20260507034412 33 350 1.0 3.0 0.00 0.00 0.00 68 1011.2
20260507032856 33 350 3.0 4.0 0.00 0.00 0.00 66 1011.2
20260507030914 33 350 3.0 4.0 0.00 0.00 0.00 60 1011.2
20260507025403 34 350 2.0 4.0 0.00 0.00 0.00 54 1011.4
20260507023859 36 349 2.0 3.0 0.00 0.00 0.00 50 1011.5
20260507021913 39 346 3.0 4.0 0.00 0.00 0.00 45 1011.4
20260507020405 41 348 2.0 5.0 0.00 0.00 0.00 43 1011.4
20260507014856 43 351 4.0 9.0 0.00 0.00 0.00 40 1011.5
20260507012905 44 328 8.0 13.0 0.00 0.00 0.00 39 1011.6
20260507010859 45 24 7.0 12.0 0.00 0.00 0.00 38 1011.6
20260507004906 46 325 10.0 14.0 0.00 0.00 0.00 37 1011.7
20260507002909 47 336 10.0 14.0 0.00 0.00 0.00 38 1011.8
20260507000905 48 325 11.0 15.0 0.00 0.00 0.00 37 1011.8
20260506234911 48 319 9.0 13.0 0.00 0.00 0.00 37 1012.0
20260506232857 48 324 7.0 12.0 0.00 0.00 0.00 39 1012.1
20260506230908 48 313 3.0 14.0 0.00 0.00 0.00 39 1012.2
20260506225407 48 271 11.0 16.0 0.00 0.00 0.00 39 1012.4
20260506222902 48 276 6.0 12.0 0.00 0.00 0.00 36 1012.5
20260506221401 48 336 7.0 10.0 0.00 0.00 0.00 39 1012.6
20260506215412 48 360 3.0 12.0 0.00 0.00 0.00 39 1012.9
20260506213406 47 307 10.0 15.0 0.00 0.00 0.00 41 1013.0
20260506211407 46 290 9.0 17.0 0.00 0.00 0.00 41 1013.5
20260506205856 46 274 11.0 17.0 0.00 0.00 0.00 41 1013.8
20260506203910 46 340 5.0 13.0 0.00 0.00 0.00 41 1014.1
20260506202401 46 257 6.0 11.0 0.00 0.00 0.00 43 1014.0
20260506200857 45 5 5.0 14.0 0.00 0.00 0.00 44 1014.1
20260506194915 44 309 7.0 14.0 0.00 0.00 0.00 46 1014.3
20260506192917 44 245 6.0 11.0 0.00 0.00 0.00 47 1014.5
20260506190356 44 321 3.0 14.0 0.00 0.00 0.00 47 1015.0
20260506184354 43 223 3.0 10.0 0.00 0.00 0.00 48 1015.2
20260506182359 42 306 4.0 11.0 0.00 0.00 0.00 49 1015.5
20260506180856 41 262 7.0 13.0 0.00 0.00 0.00 50 1015.7
20260506174859 40 229 5.0 12.0 0.00 0.00 0.00 53 1015.9
20260506172903 41 331 7.0 13.0 0.00 0.00 0.00 53 1016.1
20260506170406 39 312 5.0 13.0 0.00 0.00 0.00 56 1016.3
20260506164412 38 250 3.0 14.0 0.00 0.00 0.00 56 1016.8
20260506162400 37 302 4.0 13.0 0.00 0.00 0.00 59 1017.0
20260506160855 37 256 4.0 13.0 0.00 0.00 0.00 62 1017.2
20260506154858 37 326 6.0 14.0 0.00 0.00 0.00 60 1017.3
20260506152912 37 263 9.0 13.0 0.00 0.00 0.00 63 1017.4
20260506151349 36 304 8.0 14.0 0.00 0.00 0.00 64 1017.5
20260506145405 35 277 6.0 11.0 0.00 0.00 0.00 68 1017.8
20260506143849 35 325 9.0 12.0 0.00 0.00 0.00 69 1017.8
20260506141907 34 314 7.0 10.0 0.00 0.00 0.00 71 1017.7
20260506140400 34 331 9.0 13.0 0.00 0.00 0.00 72 1017.8
20260506134409 33 307 9.0 12.0 0.00 0.00 0.00 74 1017.7
20260506132905 32 296 6.0 10.0 0.00 0.00 0.00 80 1017.8
20260506131352 29 286 6.0 9.0 0.00 0.00 0.00 86 1017.8
20260506125410 27 252 5.0 8.0 0.00 0.00 0.00 89 1017.8
20260506122908 23 257 1.0 4.0 0.00 0.00 0.00 91 1017.4
20260506121359 21 219 0.0 0.0 0.00 0.00 0.00 89 1017.3
20260506115408 21 194 0.0 2.0 0.00 0.00 0.00 90 1017.1
20260506113905 20 216 1.0 4.0 0.00 0.00 0.00 90 1017.0
20260506111906 20 284 2.0 3.0 0.00 0.00 0.00 89 1017.0
20260506110354 20 284 2.0 4.0 0.00 0.00 0.00 90 1016.9
20260506104358 20 284 2.0 4.0 0.00 0.00 0.00 89 1016.9
20260506102849 21 284 2.0 3.0 0.00 0.00 0.00 89 1016.9
20260506100907 21 284 2.0 3.0 0.00 0.00 0.00 89 1016.8
20260506094402 21 284 3.0 4.0 0.00 0.00 0.00 88 1016.9
20260506092402 21 266 2.0 4.0 0.00 0.00 0.00 87 1017.0
20260506090406 22 263 3.0 6.0 0.00 0.00 0.00 88 1017.1
20260506084857 22 259 3.0 4.0 0.00 0.00 0.00 87 1017.1
20260506082900 22 263 2.0 4.0 0.00 0.00 0.00 87 1017.1
20260506080908 22 266 2.0 3.0 0.00 0.00 0.00 86 1017.1
20260506072911 24 277 3.0 4.0 0.00 0.00 0.00 82 1017.4
20260506070904 26 300 3.0 4.0 0.00 0.00 0.00 80 1017.3